Flag for U.S.A. Weather past 2 weeks in St. Croix Falls, Wisconsin, U.S.A.

Now
68 °F

Sunny.


Feels Like: 68 °F
Forecast: 60 / 78 °F
Wind: 10 mph from West

Location: L O Simenstad Municipal Airport

Current Time: Jul 31, 2015 at 9:08:35 AM

Latest Report: Jul 31, 2015 at 8:35 AM


Visibility: 10 mi

Pressure: 30.08 "Hg

Humidity: 62%

Dew point: 54 °F

Location of St. Croix FallsLocation

Historic Weather in St. Croix Falls — Graph

°F

St. Croix Falls temperature yesterday

Maximum temperature yesterday: 82 °F (at 3:55 PM)
Minimum temperature yesterday: 64 °F (at 6:15 AM)
Average temperature yesterday: 72 °F

Past Weeks' High & Low Weather Summary

 TemperatureHumidityPressure
High86 °F (Jul 26, 3:15 PM)100% (Jul 16, 7:15 AM)30.07 "Hg (Jul 16, 7:15 AM)
Low53 °F (Jul 21, 5:55 AM)37% (Jul 29, 4:15 PM)29.66 "Hg (Jul 18, 1:15 AM)
Average73 °F75%29.92 "Hg
* Reported Jul 16 7:15 AM — Jul 31 7:55 AM, St. Croix Falls, Weather by CustomWeather, © 2015

Note: Actual official high and low records may vary slightly from our data, if they occured in-between our weather recording intervals... More about our weather records

Advertising

St. Croix Falls weather history for previous 24 hours

 ConditionsComfort  
Time TempWeatherWind HumidityBarometerVisibility
7:55 AM
Fri, Jul 31
66 °FSunny.12 mph65%30.07 "Hg10 mi
7:15 AM65 °FSunny.9 mph69%30.06 "Hg10 mi
6:55 AM64 °FSunny.8 mph72%30.06 "Hg10 mi
6:15 AM62 °FClear.7 mph75%30.05 "Hg10 mi
5:55 AM61 °FClear.7 mph79%30.04 "Hg10 mi
5:15 AM63 °FClear.8 mph75%30.04 "Hg10 mi
4:55 AM64 °FClear.8 mph75%30.04 "Hg10 mi
4:35 AM64 °FClear.8 mph76%30.04 "Hg10 mi
4:15 AM65 °FClear.7 mph74%30.04 "Hg10 mi
3:55 AM66 °FClear.8 mph72%30.03 "Hg10 mi
3:35 AM66 °FClear.8 mph73%30.03 "Hg10 mi
3:15 AM67 °FClear.9 mph72%30.03 "Hg10 mi
2:55 AM66 °FClear.9 mph75%30.03 "Hg10 mi
2:35 AM66 °FClear.8 mph76%30.03 "Hg10 mi
2:15 AM66 °FClear.6 mph76%30.02 "Hg10 mi
1:55 AM66 °FClear.6 mph75%30.02 "Hg10 mi
1:35 AM65 °FClear.6 mph78%30.03 "Hg10 mi
1:15 AM66 °FClear.5 mph75%30.03 "Hg10 mi
12:55 AM67 °FClear.6 mph72%30.03 "Hg10 mi
12:35 AM68 °FClear.7 mph71%30.03 "Hg10 mi
12:15 AM68 °FClear.7 mph71%30.03 "Hg10 mi
11:55 PM
Thu, Jul 30
68 °FClear.7 mph70%30.03 "Hg10 mi
11:35 PM68 °FClear.7 mph70%30.03 "Hg10 mi
11:15 PM68 °FClear.6 mph70%30.03 "Hg10 mi
10:55 PM68 °FClear.6 mph72%30.03 "Hg10 mi
10:35 PM67 °FClear.6 mph76%30.03 "Hg10 mi
10:15 PM67 °FClear.6 mph76%30.03 "Hg10 mi
9:55 PM67 °FClear.6 mph75%30.02 "Hg10 mi
9:35 PM69 °FSunny.6 mph70%30.02 "Hg10 mi
9:15 PM70 °FSunny.6 mph69%30.01 "Hg10 mi
8:55 PM71 °FSunny.6 mph64%30.01 "Hg10 mi
8:35 PM73 °FSunny.6 mph59%30.01 "Hg10 mi
8:15 PM75 °FSunny.7 mph55%30.01 "Hg10 mi
7:55 PM77 °FSunny.9 mph51%30.01 "Hg10 mi
7:35 PM78 °FSunny.7 mph51%30.01 "Hg10 mi
7:15 PM79 °FScattered clouds.8 mph47%30.02 "Hg10 mi
6:55 PM79 °FScattered clouds.9 mph45%30.02 "Hg10 mi
6:35 PM80 °FPartly sunny.9 mph45%30.02 "Hg10 mi
6:15 PM80 °FBroken clouds.10 mph47%30.02 "Hg10 mi
5:55 PM79 °FSunny.10 mph44%30.03 "Hg10 mi
5:35 PM82 °FScattered clouds.15 mph39%30.03 "Hg10 mi
4:15 PM82 °FScattered clouds.10 mph42%30.04 "Hg10 mi
3:55 PM82 °FScattered clouds.13 mph43%30.04 "Hg10 mi
3:35 PM81 °FScattered clouds.13 mph44%30.05 "Hg10 mi
3:15 PM81 °FScattered clouds.12 mph45%30.05 "Hg10 mi
2:55 PM81 °FScattered clouds.9 mph44%30.05 "Hg10 mi
2:35 PM82 °FSunny.21 mph44%30.05 "Hg10 mi
2:15 PM81 °FScattered clouds.17 mph44%30.06 "Hg10 mi
1:55 PM81 °FScattered clouds.14 mph45%30.06 "Hg10 mi
1:35 PM80 °FScattered clouds.14 mph44%30.06 "Hg10 mi
1:15 PM80 °FScattered clouds.15 mph45%30.06 "Hg10 mi
12:55 PM80 °FScattered clouds.14 mph46%30.06 "Hg10 mi
12:35 PM79 °FSunny.17 mph47%30.06 "Hg10 mi
12:15 PM80 °FSunny.14 mph51%30.06 "Hg10 mi
11:55 AM78 °FSunny.13 mph52%30.06 "Hg10 mi
11:35 AM78 °FSunny.14 mph54%30.06 "Hg10 mi
11:15 AM77 °FSunny.9 mph56%30.06 "Hg10 mi
10:55 AM76 °FSunny.9 mph58%30.05 "Hg10 mi
10:35 AM75 °FSunny.12 mph58%30.05 "Hg10 mi
10:15 AM75 °FSunny.7 mph60%30.05 "Hg10 mi
9:55 AM74 °FSunny.6 mph60%30.05 "Hg10 mi
9:35 AM73 °FSunny.7 mph61%30.05 "Hg10 mi
9:15 AM71 °FScattered clouds.9 mph63%30.05 "Hg10 mi
Weather by CustomWeather, © 2015

See weather overviewHow to use our weather pages